This is the latest recevied weather packets stored in our database for station/object OK1VCF-5. If no packets are shown the sender has not sent any weather packets the latest 10 day(s).
| Time | Temp. | Humidity | Pressure | Rain* | Wind** | Luminosity | Snow |
|---|---|---|---|---|---|---|---|
| 1777739180 | 23.33° C | 22% | 1022.7 hPa | - | - | - | - |
| 1777738279 | 24.44° C | 18% | 1022.8 hPa | - | - | - | - |
| 1777737549 | 24.44° C | 20% | 1023.1 hPa | - | - | - | - |
| 1777737378 | 24.44° C | 20% | 1023.1 hPa | - | - | - | - |
| 1777736477 | 25° C | 20% | 1023.2 hPa | - | - | - | - |
| 1777735575 | 25.56° C | 20% | 1023.2 hPa | - | - | - | - |
| 1777734779 | 25.56° C | 20% | 1023.4 hPa | - | - | - | - |
| 1777734674 | 25.56° C | 20% | 1023.4 hPa | - | - | - | - |
| 1777733775 | 25.56° C | 20% | 1023.7 hPa | - | - | - | - |
| 1777732873 | 25.56° C | 20% | 1023.8 hPa | - | - | - | - |
| 1777731974 | 26.11° C | 21% | 1024 hPa | - | - | - | - |
| 1777730173 | 25.56° C | 20% | 1024.3 hPa | - | - | - | - |
| 1777729271 | 26.67° C | 20% | 1024.6 hPa | - | - | - | - |
| 1777728371 | 26.67° C | 18% | 1024.6 hPa | - | - | - | - |
| 1777727470 | 25.56° C | 21% | 1024.8 hPa | - | - | - | - |
| 1777726646 | 26.67° C | 20% | 1025.1 hPa | - | - | - | - |
| 1777726569 | 26.67° C | 20% | 1025.1 hPa | - | - | - | - |
| 1777725668 | 26.67° C | 22% | 1025.2 hPa | - | - | - | - |
| 1777724768 | 26.67° C | 21% | 1025.6 hPa | - | - | - | - |
| 1777723868 | 25.56° C | 22% | 1025.6 hPa | - | - | - | - |
| 1777723080 | 25.56° C | 22% | 1025.9 hPa | - | - | - | - |
| 1777722964 | 25.56° C | 22% | 1025.9 hPa | - | - | - | - |
| 1777722066 | 26.67° C | 25% | 1026.1 hPa | - | - | - | - |
| 1777721163 | 25.56° C | 25% | 1026.4 hPa | - | - | - | - |
| 1777720264 | 25.56° C | 26% | 1026.5 hPa | - | - | - | - |
* Rain since midnight (hover to see other rain measurements)
** Current wind speed in m/s (hover to see current wind gust speed)